Temp
3 3 3 3 3 3 2 2 2 2 4 6 6 7 7 8 8 10 11 12 13 15 16 18 20 22 21 20 24 25 28 28 29 29 30 31 31 31 31 31 30 29 29 29 29 29 29 29 30 29 29 29 28 28
3 3 3 3 3 3 2 2 2 2 2 4 6 7 7 8 8 9 10 12 13 13 16 16 18 19 20 21 22 23 26 29 30 30 30 31 30 30 30 29 31 29 30 29 29 27 29 29 29 28 28 28 27 27
3 3 3 3 3 3 3 2 2 2 2 3 5 6 7 7 8 8 10 10 12 14 17 19 21 22 20 20 22 20 22 26 27 26 28 28 27 29 28 29 29 30 30 29 28 29 30 29 28 27 26 27 26 27
3 2 3 3 3 3 3 3 2 2 2 3 4 5 7 7 8 8 9 10 11 14 18 22 22 22 22 22 22 22 23 24 26 26 28 28 27 29 28 29 28 29 28 28 28 28 28 27 26 25 25 26 26 26
3 3 3 3 3 3 3 3 3 2 3 3 3 5 6 7 8 9 10 11 10 12 16 15 20 22 21 22 22 22 23 25 26 26 27 27 28 28 28 28 28 29 28 28 27 26 25 25 25 25 25 26 25 25
3 3 3 3 3 3 3 3 3 2 3 3 3 5 7 7 7 8 12 10 10 11 13 18 19 22 22 22 22 22 23 24 25 26 27 27 27 27 26 26 28 28 26 25 25 25 25 25 25 25 25 25 25 23
3 3 3 3 3 3 3 3 3 3 3 3 4 4 6 6 7 8 9 9 9 10 13 19 22 22 21 21 22 22 23 23 24 25 26 26 25 26 26 25 26 24 24 24 24 24 25 25 25 24 25 25 23 22
3 3 3 3 3 3 3 3 3 3 3 3 4 5 6 7 8 9 10 10 10 10 14 19 19 22 21 22 23 23 23 23 24 24 25 26 24 23 25 25 25 24 24 24 24 24 25 24 24 24 24 24 24 23
3 3 3 3 3 3 3 3 2 2 3 3 4 5 6 7 8 8 9 10 10 10 14 19 18 19 22 23 23 23 23 24 24 24 25 26 25 23 25 24 23 23 24 24 23 24 24 25 24 24 24 24 22 20
3 3 3 2 2 2 2 2 2 2 3 4 5 4 6 7 8 8 10 10 10 11 13 17 16 13 23 23 23 23 24 24 24 24 24 25 25 22 23 22 21 22 22 22 23 24 23 23 23 24 24 23 21 15
2 3 3 2 2 2 2 2 2 3 4 5 6 7 6 6 7 8 11 14 15 16 17 19 20 19 21 21 23 24 24 25 24 24 24 24 24 22 22 21 21 21 22 22 22 23 22 22 21 20 18 18 20 17
2 2 2 2 2 2 2 2 2 3 3 5 5 6 6 7 7 9 13 14 16 18 20 20 21 18 20 16 18 25 24 25 23 26 24 24 20 21 21 20 21 21 21 21 20 18 17 16 16 15 14 14 15 15
3 3 2 2 2 2 2 2 3 3 4 4 6 6 6 7 8 12 14 15 16 20 21 21 22 19 19 21 16 15 20 23 24 23 23 22 20 20 20 20 20 20 19 17 16 15 14 13 13 13 13 13 13 13
3 3 3 2 2 2 2 2 3 3 4 5 6 7 8 10 13 16 17 19 20 20 21 21 21 18 16 20 12 12 13 23 23 22 22 18 19 18 19 19 19 17 16 15 14 13 13 12 12 12 12 12 13 13
2 3 3 3 2 2 2 2 3 3 4 5 6 8 9 10 12 14 15 16 18 18 20 20 21 22 21 22 17 16 18 20 23 23 19 17 17 17 17 17 16 15 15 14 13 12 12 11 10 11 12 12 12 12
3 3 3 3 2 2 2 3 4 4 5 5 7 8 9 11 12 13 14 14 14 15 15 17 17 18 14 16 18 13 18 20 17 17 17 16 16 16 16 16 16 15 14 14 13 13 12 11 11 11 10 10 10 9
3 3 3 3 3 3 3 4 4 5 7 7 7 8 7 7 9 11 12 13 13 14 14 16 17 18 14 14 17 17 15 15 15 16 16 16 15 15 16 15 15 14 14 13 11 11 12 12 11 11 11 10 10 11
3 3 3 3 3 3 4 5 6 7 9 9 8 8 8 8 9 10 11 11 13 13 13 16 15 18 17 15 16 15 17 17 16 16 15 14 15 15 14 13 12 12 11 11 12 11 11 11 11 11 10 10 10 10
3 3 3 3 4 4 5 7 7 9 10 9 9 9 9 9 9 10 11 12 12 12 13 14 15 16 13 13 13 13 15 15 15 14 14 14 14 13 13 13 12 12 12 12 13 13 13 13 13 12 12 11 12 11
3 4 4 4 4 5 6 8 7 8 9 8 9 9 8 8 10 10 12 12 13 13 12 13 12 11 12 12 13 12 13 13 13 12 12 13 13 13 13 13 13 13 13 13 13 13 13 13 13 13 12 12 12 11
4 4 5 5 5 5 6 7 7 7 8 8 8 8 9 9 10 11 12 12 13 11 11 10 9 10 11 12 13 12 12 13 13 13 12 12 12 11 12 12 12 12 12 11 13 13 13 13 12 11 11 11 10 10
5 5 5 5 5 6 6 8 8 8 8 8 8 8 9 10 11 11 12 10 9 8 8 8 9 10 11 11 11 11 11 12 12 11 11 11 11 11 11 11 12 13 13 13 14 13 12 12 12 11 11 10 10 10
5 5 6 6 7 7 8 8 8 8 8 8 8 9 10 11 10 12 9 8 7 7 8 8 9 9 9 10 11 10 10 11 11 12 11 11 11 11 12 12 13 13 14 13 13 12 11 11 11 11 10 10 11 10
6 6 7 9 8 8 9 8 8 8 9 9 9 9 9 10 10 9 8 7 7 7 7 8 8 9 9 10 10 10 10 10 10 10 11 11 12 13 13 14 15 14 14 13 13 11 10 11 10 11 10 10 10 10
6 8 8 6 10 9 12 12 12 12 12 9 9 10 9 9 9 9 8 7 7 7 7 8 8 8 9 8 9 10 10 11 11 12 13 13 14 14 14 14 14 13 13 13 13 12 12 11 11 11 11 11 10 10
7 10 8 11 11 12 11 12 12 12 12 9 9 10 9 10 10 9 8 8 8 8 8 8 9 8 9 9 9 9 10 10 10 10 11 13 14 14 14 13 13 12 12 12 12 12 11 11 11 11 11 11 10 10
8 9 10 9 8 8 10 11 10 10 10 11 12 11 10 10 10 10 10 10 10 10 10 10 10 10 9 9 9 9 10 10 11 11 11 12 13 13 13 13 13 11 11 11 11 11 11 11 11 11 11 11 11 11
10 10 8 8 8 8 8 8 8 9 11 10 11 13 13 13 12 11 11 12 12 12 12 12 12 13 12 11 11 11 12 12 12 12 12 12 12 12 11 11 10 11 11 11 11 10 10 11 11 11 11 10 10 10
10 10 9 9 8 8 9 9 9 10 11 11 12 15 11 10 11 11 11 12 12 13 13 13 13 13 13 13 13 13 13 12 13 12 13 13 13 12 11 10 10 10 10 10 10 10 9 9 9 9 9 9 10 10
10 10 10 12 11 10 11 11 12 12 14 13 12 11 11 11 11 11 12 13 13 14 14 14 14 14 14 14 13 13 14 14 14 14 14 14 14 13 12 12 12 11 11 11 11 10 10 10 9 10 10 10 10 11
12 11 12 11 11 11 11 12 13 12 12 13 13 13 12 12 12 12 13 13 14 14 14 14 15 15 15 14 14 14 14 13 12 12 12 13 13 12 12 11 11 11 11 11 11 11 11 10 11 11 11 11 11 11
12 12 12 12 12 12 13 13 12 12 12 12 13 12 13 13 13 12 12 12 13 15 15 15 15 15 15 15 14 13 13 13 11 11 11 12 11 11 10 11 11 11 10 10 10 11 11 11 11 11 11 11 11 11
12 12 12 12 13 13 13 13 13 13 12 12 12 13 13 14 14 13 12 12 13 14 14 15 15 15 14 14 13 12 12 12 11 11 10 10 10 10 11 11 11 10 10 10 11 11 11 11 11 11 11 11 10 10
Height
1495 1493 1492 1492 1491 1489 1488 1486 1485 1484 1482 1481 1481 1481 1480 1479 1478 1477 1475 1476 1477 1471 1458 1457 1453 1448 1446 1449 1444 1436 1440 1441 1440 1441 1439 1436 1439 1438 1440 1441 1448 1461 1468 1464 1465 1472 1479 1462 1458 1466 1468 1466 1468 1468
1491 1490 1490 1489 1488 1487 1486 1484 1483 1481 1480 1479 1478 1478 1478 1478 1477 1476 1475 1475 1474 1472 1463 1457 1454 1454 1456 1454 1450 1444 1441 1436 1435 1439 1435 1432 1439 1441 1444 1455 1440 1461 1453 1460 1463 1474 1464 1463 1465 1468 1469 1469 1470 1469
1487 1487 1486 1486 1485 1484 1483 1482 1481 1479 1478 1476 1476 1476 1475 1476 1476 1475 1474 1473 1471 1464 1455 1451 1447 1450 1452 1453 1454 1452 1449 1441 1442 1444 1440 1439 1448 1446 1453 1450 1451 1450 1449 1456 1461 1460 1460 1463 1466 1469 1471 1471 1471 1469
1484 1483 1483 1483 1482 1482 1481 1480 1479 1478 1476 1474 1472 1473 1473 1473 1473 1473 1472 1472 1474 1470 1458 1443 1443 1448 1451 1453 1456 1458 1455 1448 1446 1447 1445 1446 1449 1448 1450 1449 1454 1453 1455 1458 1462 1461 1462 1465 1468 1471 1472 1471 1470 1469
1481 1480 1480 1480 1479 1479 1478 1478 1477 1476 1474 1472 1470 1470 1469 1471 1471 1470 1470 1469 1473 1476 1464 1453 1444 1444 1448 1451 1453 1454 1451 1448 1449 1449 1450 1451 1450 1450 1452 1453 1455 1452 1453 1458 1462 1466 1470 1470 1471 1471 1472 1470 1471 1471
1478 1478 1477 1477 1477 1476 1476 1475 1474 1473 1472 1470 1469 1468 1469 1469 1470 1469 1469 1470 1472 1473 1471 1455 1447 1442 1445 1447 1451 1453 1454 1455 1454 1451 1451 1452 1453 1458 1460 1461 1456 1456 1461 1464 1466 1468 1470 1471 1471 1471 1471 1470 1470 1470
1476 1475 1475 1474 1474 1474 1473 1472 1472 1471 1470 1469 1467 1467 1467 1469 1469 1469 1470 1468 1468 1469 1468 1452 1430 1439 1445 1448 1450 1451 1454 1456 1458 1457 1456 1455 1458 1461 1462 1464 1457 1463 1465 1467 1467 1468 1470 1470 1469 1471 1470 1468 1470 1474
1473 1473 1473 1472 1472 1472 1471 1470 1469 1468 1467 1466 1465 1466 1466 1467 1467 1467 1467 1466 1467 1467 1465 1451 1442 1439 1442 1443 1446 1449 1453 1456 1458 1458 1457 1455 1461 1468 1462 1459 1460 1464 1467 1468 1467 1469 1469 1468 1471 1471 1469 1472 1475 1478
1471 1471 1471 1471 1471 1470 1469 1468 1467 1466 1465 1464 1464 1464 1465 1466 1466 1466 1466 1466 1466 1468 1462 1445 1442 1441 1437 1437 1440 1447 1449 1452 1454 1456 1454 1454 1454 1461 1456 1461 1464 1467 1468 1467 1469 1470 1469 1468 1469 1470 1471 1470 1461 1478
1468 1468 1468 1469 1469 1468 1467 1466 1465 1464 1463 1463 1464 1465 1465 1464 1464 1465 1466 1467 1466 1463 1461 1447 1443 1448 1433 1432 1437 1442 1444 1445 1448 1449 1453 1451 1450 1455 1459 1461 1466 1467 1469 1470 1470 1468 1468 1471 1470 1468 1471 1474 1469 1456
1466 1467 1467 1467 1467 1467 1466 1464 1463 1462 1462 1464 1465 1464 1464 1463 1465 1465 1461 1457 1454 1451 1443 1439 1439 1439 1433 1434 1434 1433 1436 1434 1442 1440 1446 1447 1447 1452 1459 1461 1466 1466 1469 1470 1471 1471 1473 1474 1474 1473 1473 1473 1478 1472
1466 1466 1466 1466 1466 1466 1465 1463 1462 1462 1463 1463 1463 1464 1464 1464 1463 1460 1452 1449 1445 1436 1427 1429 1433 1435 1436 1445 1439 1427 1430 1431 1438 1433 1438 1440 1450 1451 1457 1461 1464 1466 1470 1472 1474 1473 1473 1475 1476 1477 1478 1477 1477 1478
1466 1466 1465 1465 1465 1464 1463 1462 1462 1462 1462 1464 1464 1464 1462 1460 1456 1446 1439 1438 1435 1424 1423 1424 1426 1435 1438 1437 1443 1446 1437 1431 1430 1436 1438 1439 1448 1452 1458 1462 1465 1468 1471 1474 1477 1477 1477 1478 1480 1481 1482 1484 1485 1485
1465 1465 1464 1464 1464 1463 1462 1461 1461 1462 1463 1462 1462 1459 1455 1446 1439 1426 1424 1422 1423 1424 1423 1424 1426 1434 1439 1435 1453 1462 1454 1429 1431 1437 1441 1447 1453 1456 1460 1463 1467 1469 1473 1478 1480 1481 1482 1483 1485 1487 1488 1489 1491 1492
1464 1464 1463 1463 1462 1461 1461 1461 1461 1463 1462 1462 1458 1452 1447 1442 1436 1433 1430 1425 1424 1425 1423 1426 1427 1428 1426 1425 1437 1451 1449 1437 1427 1428 1442 1449 1458 1463 1465 1465 1469 1473 1478 1480 1482 1484 1485 1487 1488 1489 1492 1493 1494 1495
1462 1462 1462 1462 1461 1461 1460 1461 1462 1463 1462 1460 1455 1452 1447 1440 1437 1433 1431 1430 1430 1428 1426 1430 1432 1433 1434 1437 1442 1458 1451 1436 1446 1438 1446 1452 1456 1464 1469 1470 1474 1478 1481 1483 1485 1487 1490 1491 1492 1494 1496 1496 1497 1499
1461 1461 1461 1461 1460 1460 1460 1461 1463 1463 1460 1457 1454 1451 1450 1447 1443 1439 1436 1434 1432 1431 1432 1432 1435 1436 1444 1447 1443 1445 1445 1438 1446 1440 1447 1455 1461 1467 1471 1474 1477 1480 1483 1486 1488 1489 1491 1494 1496 1498 1499 1500 1500 1500
1461 1461 1461 1460 1460 1460 1462 1461 1461 1460 1455 1452 1452 1449 1448 1447 1443 1440 1438 1438 1438 1438 1439 1436 1435 1432 1437 1446 1448 1445 1449 1449 1448 1449 1456 1461 1466 1471 1474 1476 1480 1483 1485 1488 1490 1494 1496 1498 1500 1501 1501 1501 1502 1503
1461 1461 1460 1460 1460 1460 1461 1461 1461 1456 1451 1450 1450 1448 1447 1445 1443 1441 1439 1438 1438 1438 1440 1441 1440 1441 1445 1430 1445 1441 1445 1449 1453 1459 1462 1467 1472 1475 1478 1481 1484 1487 1490 1493 1495 1498 1499 1501 1502 1503 1504 1504 1506 1506
1461 1461 1461 1461 1461 1460 1460 1459 1458 1457 1452 1451 1449 1448 1446 1444 1442 1440 1439 1438 1438 1439 1443 1446 1449 1451 1452 1450 1451 1449 1452 1457 1459 1463 1467 1472 1475 1477 1481 1484 1486 1490 1493 1496 1498 1499 1501 1502 1503 1504 1504 1505 1507 1507
1462 1463 1461 1461 1461 1460 1459 1457 1455 1455 1453 1451 1449 1447 1446 1444 1443 1442 1440 1437 1437 1444 1449 1454 1453 1452 1453 1451 1453 1454 1458 1463 1467 1469 1471 1473 1477 1479 1481 1486 1490 1492 1493 1495 1499 1500 1502 1503 1504 1505 1506 1507 1507 1508
1464 1463 1462 1461 1460 1459 1457 1455 1455 1454 1453 1450 1449 1448 1446 1444 1443 1444 1445 1446 1451 1455 1455 1454 1454 1455 1457 1457 1458 1460 1462 1463 1465 1467 1470 1473 1478 1482 1487 1490 1492 1494 1495 1497 1500 1501 1503 1504 1505 1506 1506 1507 1508 1508
1464 1463 1461 1460 1460 1458 1457 1454 1453 1452 1452 1450 1450 1448 1447 1443 1448 1448 1452 1456 1458 1458 1457 1456 1457 1458 1460 1461 1461 1463 1465 1467 1469 1472 1476 1479 1483 1487 1489 1491 1493 1495 1498 1500 1501 1502 1503 1504 1505 1506 1507 1508 1509 1508
1465 1463 1460 1457 1457 1456 1454 1452 1451 1449 1448 1448 1449 1449 1450 1450 1452 1455 1459 1461 1461 1460 1459 1459 1461 1461 1463 1464 1465 1468 1471 1473 1476 1479 1482 1485 1488 1490 1490 1492 1494 1496 1498 1500 1502 1503 1504 1505 1505 1506 1507 1508 1508 1508
1467 1462 1461 1456 1454 1453 1446 1444 1443 1442 1443 1451 1450 1450 1454 1454 1456 1460 1462 1464 1463 1462 1462 1463 1463 1464 1464 1465 1469 1471 1475 1477 1479 1481 1484 1487 1490 1491 1493 1495 1497 1499 1500 1501 1502 1503 1504 1505 1506 1506 1507 1507 1508 1508
1465 1459 1459 1454 1452 1450 1451 1447 1448 1447 1449 1453 1454 1455 1457 1458 1461 1466 1467 1468 1466 1466 1466 1465 1467 1468 1468 1470 1474 1478 1480 1482 1483 1485 1489 1491 1492 1493 1494 1497 1498 1499 1501 1501 1502 1504 1505 1505 1506 1506 1506 1506 1506 1506
1463 1459 1458 1458 1458 1458 1456 1455 1456 1456 1456 1454 1452 1454 1457 1461 1465 1468 1469 1469 1469 1470 1471 1472 1473 1474 1476 1479 1482 1483 1485 1486 1488 1491 1492 1493 1494 1495 1496 1496 1497 1498 1500 1501 1503 1504 1505 1505 1505 1506 1506 1505 1505 1504
1462 1461 1462 1462 1460 1460 1460 1460 1460 1458 1456 1456 1455 1450 1453 1457 1463 1467 1469 1471 1473 1474 1475 1475 1476 1479 1481 1483 1485 1486 1488 1490 1492 1493 1494 1495 1496 1496 1496 1497 1496 1498 1500 1501 1503 1504 1505 1505 1505 1504 1504 1504 1503 1502
1462 1462 1462 1460 1461 1461 1460 1460 1460 1458 1458 1456 1454 1451 1460 1462 1465 1467 1471 1473 1475 1476 1476 1478 1479 1481 1482 1484 1486 1488 1489 1491 1492 1494 1494 1494 1495 1497 1497 1498 1498 1500 1501 1501 1502 1503 1503 1502 1502 1502 1502 1501 1501 1500
1462 1461 1460 1459 1460 1461 1461 1459 1458 1456 1455 1455 1457 1460 1462 1464 1467 1470 1473 1474 1475 1476 1477 1479 1480 1481 1483 1485 1486 1488 1489 1490 1491 1492 1492 1493 1494 1495 1497 1498 1499 1500 1501 1501 1501 1500 1501 1501 1500 1499 1499 1498 1498 1497
1460 1461 1460 1462 1463 1463 1461 1458 1457 1457 1457 1458 1459 1461 1464 1467 1471 1473 1474 1475 1475 1477 1478 1479 1480 1481 1483 1485 1487 1488 1489 1490 1490 1491 1491 1493 1494 1495 1496 1497 1498 1499 1499 1500 1500 1501 1500 1500 1500 1499 1498 1497 1495 1494
1460 1459 1460 1463 1464 1464 1461 1461 1462 1463 1463 1464 1464 1467 1469 1470 1472 1474 1475 1476 1477 1477 1478 1479 1480 1482 1483 1484 1486 1487 1488 1489 1490 1492 1493 1494 1494 1495 1496 1497 1498 1498 1499 1499 1499 1499 1499 1499 1498 1496 1495 1493 1492 1490
1461 1462 1463 1464 1463 1464 1465 1464 1465 1466 1468 1469 1470 1469 1470 1470 1472 1474 1475 1475 1476 1477 1479 1480 1480 1481 1483 1485 1486 1487 1488 1488 1489 1491 1492 1492 1493 1494 1495 1497 1497 1497 1498 1498 1498 1497 1497 1496 1495 1493 1492 1490 1489 1487
Wind_Speed
16 14 13 13 11 11 11 11 13 11 11 11 11 11 9 8 8 9 6 5 7 15 27 19 19 12 20 14 6 3 13 15 13 12 11 8 6 7 12 6 5 9 9 6 9 13 13 13 5 5 7 9 10 9
14 13 12 12 11 11 10 11 12 13 12 11 11 10 10 8 7 7 5 5 8 14 18 21 18 12 3 6 5 8 10 12 3 9 10 6 4 1 4 7 9 9 9 7 5 4 5 3 5 6 8 9 9 9
14 15 13 12 11 11 10 10 11 9 11 11 11 11 10 9 8 8 11 9 14 16 20 21 17 11 12 9 1 8 14 6 4 6 5 3 2 4 2 6 6 4 9 3 9 10 7 6 5 8 14 11 10 10
13 13 13 12 11 11 11 11 10 10 10 11 11 10 9 9 9 9 10 6 8 10 7 10 16 10 8 13 11 12 10 1 6 3 3 2 1 2 6 4 3 4 2 2 5 7 10 9 11 6 9 10 9 6
13 13 12 11 10 11 11 11 10 11 11 10 10 10 8 12 10 11 11 9 6 6 8 16 12 17 12 12 12 9 5 6 3 1 3 2 6 3 2 7 7 8 8 5 2 8 5 7 6 6 7 4 5 6
10 11 10 11 11 10 10 10 11 11 11 10 9 9 9 11 10 6 3 1 7 6 6 3 13 10 10 12 10 10 9 6 5 4 5 7 1 2 2 8 15 12 7 8 3 4 6 6 4 4 3 3 3 6
9 10 9 9 10 11 10 11 11 11 11 10 8 7 8 14 10 6 3 4 9 6 5 5 3 13 11 11 11 11 11 10 8 9 11 6 4 4 5 11 12 12 9 4 3 2 5 4 2 3 5 7 7 9
11 10 8 7 10 10 9 8 10 12 12 10 8 6 7 10 7 5 6 5 6 3 6 4 2 7 16 14 10 12 12 13 12 11 12 9 7 5 5 4 9 8 1 2 2 2 4 2 0 2 6 7 10 10
9 8 7 9 8 7 7 9 9 8 7 7 5 3 2 2 4 3 4 4 6 5 6 5 4 3 21 17 15 13 11 7 8 8 12 8 6 3 5 10 7 2 0 4 0 5 4 3 8 7 8 8 11 6
7 7 5 6 5 6 7 7 7 6 5 3 4 1 2 4 9 1 2 5 5 6 8 6 7 5 19 16 10 14 13 9 8 9 14 9 7 14 11 11 8 5 3 3 6 4 6 8 8 2 7 9 4 38
5 5 5 4 5 7 7 8 5 2 4 5 3 2 3 4 7 4 5 7 9 5 9 13 8 10 1 5 7 14 7 5 6 7 11 10 9 14 15 13 9 9 5 4 2 5 5 5 7 6 10 13 9 10
1 2 2 4 6 6 5 4 1 1 2 1 1 2 2 3 5 5 5 5 6 5 11 16 13 17 8 6 14 6 6 6 3 10 6 10 5 21 18 15 13 12 9 10 10 13 14 14 16 13 15 13 15 12
3 4 4 5 7 7 4 4 3 6 4 2 3 3 4 6 5 6 9 4 4 7 11 17 7 5 1 6 6 5 4 5 14 7 6 4 19 20 18 17 16 15 15 15 14 15 15 16 16 13 15 15 15 20
5 6 5 5 3 5 5 3 2 5 3 1 3 4 3 5 6 3 4 9 7 13 16 20 10 7 13 3 1 5 5 2 6 10 5 7 16 18 18 17 17 21 19 15 15 16 17 16 16 15 13 13 15 18
5 4 6 4 3 6 6 3 4 6 1 2 5 3 5 8 14 10 5 4 3 4 6 12 8 11 6 5 4 5 4 3 3 3 7 20 16 15 14 22 23 20 18 17 17 16 17 17 18 20 18 18 17 13
6 7 6 4 4 4 0 4 7 3 2 3 4 4 10 11 9 13 2 2 2 1 7 6 2 3 3 2 4 5 4 3 3 5 20 24 22 19 19 22 19 20 18 18 16 17 17 16 15 16 15 11 11 9
3 3 1 4 5 4 5 9 4 4 4 4 4 8 9 11 11 9 11 3 5 4 1 1 3 4 8 2 1 5 3 4 13 21 22 22 24 24 24 25 24 22 20 18 17 16 18 17 13 10 8 8 6 5
2 3 5 6 2 5 5 2 2 4 6 7 5 8 7 13 10 8 5 5 3 5 3 1 3 2 2 4 3 6 10 16 21 21 23 25 28 26 23 22 20 19 19 18 18 16 13 11 8 7 7 6 6 7
3 4 4 5 8 2 3 4 3 4 3 2 6 11 10 12 9 10 8 2 3 10 5 2 3 3 3 6 5 11 13 19 19 19 21 22 24 25 23 22 20 19 18 16 13 10 8 6 5 4 3 3 3 4
2 4 3 3 3 1 2 3 2 4 4 3 7 6 7 6 8 6 2 1 3 8 5 3 3 4 4 12 7 9 18 18 23 26 24 23 25 24 22 20 20 17 14 12 9 8 7 6 5 4 4 5 4 4
4 2 1 2 2 2 3 2 2 3 4 4 7 5 5 5 5 1 4 3 6 6 4 4 4 7 7 8 8 15 17 18 19 20 23 22 18 18 21 22 20 20 16 12 5 4 5 5 4 5 5 4 4 2
3 3 1 4 2 2 4 3 3 3 3 6 5 2 4 3 2 5 5 9 5 6 4 2 5 5 8 14 13 15 15 16 17 19 19 25 28 27 25 14 12 13 10 6 6 5 5 5 5 5 5 4 5 4
5 5 3 2 3 2 3 3 2 2 2 0 1 4 3 3 4 4 5 5 5 6 3 6 9 10 11 11 12 14 13 18 24 27 26 24 21 18 17 12 10 8 7 5 5 6 6 5 6 5 4 4 2 2
8 3 3 2 5 3 4 4 4 4 3 5 0 2 2 4 5 5 3 3 5 6 9 9 12 14 14 16 20 23 25 27 22 20 19 15 12 10 9 8 7 6 5 6 5 4 5 6 5 4 2 2 1 2
4 3 4 4 4 4 3 2 3 2 3 4 2 2 3 5 2 2 2 2 4 6 6 8 9 12 17 21 20 19 20 19 19 18 16 15 10 8 8 7 6 5 4 4 4 4 5 2 3 3 3 3 2 4
3 3 1 4 4 4 4 5 4 7 4 3 3 3 3 2 3 3 2 8 13 15 13 15 18 20 18 20 26 23 21 20 21 17 8 4 4 6 6 5 5 3 3 3 4 5 4 3 3 3 3 5 5 4
3 2 3 6 3 3 2 4 4 4 2 1 1 3 3 3 3 2 12 12 13 11 13 16 19 20 20 21 19 16 14 10 10 11 8 4 2 2 3 3 3 6 4 4 4 4 3 2 2 2 4 5 5 7
2 4 1 5 3 3 2 2 1 1 1 2 2 2 2 3 3 10 13 11 12 10 7 7 9 10 11 11 10 10 10 9 9 7 6 5 5 4 4 3 5 9 8 7 6 2 2 2 3 5 6 7 8 9
2 2 2 2 1 1 1 0 1 2 1 2 3 2 3 4 13 14 14 11 10 9 10 11 10 10 11 11 11 10 9 10 9 8 7 6 5 5 4 2 5 6 4 4 3 0 2 3 2 2 4 5 5 6
2 3 3 4 3 3 2 1 1 3 2 3 5 11 15 14 15 13 12 10 9 9 9 10 11 10 11 12 11 10 9 8 6 5 5 3 3 5 5 5 4 4 4 4 3 6 5 5 5 7 6 7 8 10
5 4 4 5 3 4 5 7 9 12 8 9 13 18 18 16 13 10 9 8 6 8 9 9 8 8 9 8 7 8 7 4 3 3 3 3 3 4 4 5 4 4 4 3 3 3 2 4 5 6 8 10 12 13
3 3 6 4 5 4 5 13 15 14 11 12 12 15 14 13 7 6 7 6 6 7 6 6 8 7 5 6 6 2 4 5 3 3 6 2 3 4 5 4 5 4 3 2 3 3 5 6 8 10 12 13 14 15
10 12 11 8 5 4 7 7 7 9 9 7 5 5 8 5 5 6 9 10 9 1 5 6 4 6 7 4 4 5 5 7 8 8 7 7 9 10 7 3 3 3 3 3 5 6 7 9 11 12 12 14 15 16
Wind_Direction
285 283 290 294 299 314 322 315 307 293 279 271 275 282 295 293 294 293 233 292 275 283 281 296 316 327 21 10 319 334 172 204 222 227 224 220 220 248 227 231 144 182 240 228 227 248 252 18 3 20 11 26 13 11
284 278 278 284 283 298 309 318 303 301 291 281 273 277 282 290 285 285 285 306 286 267 259 286 289 283 300 319 329 322 321 213 192 217 242 264 215 69 231 260 182 240 266 299 322 61 334 84 39 29 352 348 347 349
282 280 283 273 283 285 299 301 322 304 295 287 276 268 278 284 278 276 270 317 324 284 288 262 261 277 225 241 323 359 323 30 95 14 338 30 96 330 163 238 233 284 294 278 296 291 325 27 333 3 4 345 327 321
285 282 281 270 275 279 286 298 300 320 323 303 288 268 264 278 280 274 261 248 316 297 283 282 223 232 206 220 218 236 262 188 31 0 323 4 91 253 288 315 330 1 47 238 267 321 297 23 47 17 338 325 325 331
281 277 268 272 267 281 277 286 293 302 316 311 306 275 265 272 280 273 263 255 263 280 326 310 314 225 212 207 217 222 268 330 286 238 259 314 291 321 264 303 289 304 324 247 45 59 15 13 350 338 314 307 329 301
293 282 274 275 267 284 279 280 287 296 304 308 304 270 250 269 285 300 232 157 219 249 277 257 290 179 200 198 204 200 212 242 273 260 268 239 221 305 304 263 241 226 90 73 39 22 14 319 309 332 259 230 285 99
299 294 284 264 261 279 280 276 279 297 299 299 299 283 261 263 265 236 295 219 215 180 244 247 233 161 187 186 192 194 203 211 225 241 253 275 80 194 249 270 87 64 47 16 359 34 263 262 66 328 241 182 152 123
295 293 278 270 271 273 281 284 287 292 290 287 294 277 233 248 261 256 274 260 193 218 257 272 238 174 183 183 172 182 185 194 209 229 222 234 135 235 241 52 71 59 41 203 119 269 269 120 198 269 229 168 172 147
279 280 276 261 274 285 295 298 298 304 291 280 280 245 196 211 193 235 245 254 223 233 295 258 172 228 180 180 160 170 173 184 193 213 237 221 201 223 191 127 104 78 301 111 195 253 248 266 207 234 254 223 146 89
274 276 258 271 257 275 312 319 304 298 286 255 148 131 232 223 221 234 188 186 214 223 231 253 103 302 192 172 156 174 186 182 196 188 212 237 214 128 138 124 140 141 156 191 228 200 131 41 10 256 266 285 298 186
265 254 251 239 259 283 305 315 302 349 105 137 208 180 233 255 200 228 229 210 194 221 220 240 217 249 231 159 185 174 177 195 203 163 195 204 206 151 151 136 148 132 148 168 87 136 98 73 69 42 38 62 110 64
205 207 255 285 287 294 311 323 246 6 338 255 59 91 123 192 240 243 199 196 211 224 205 215 190 220 116 149 241 183 184 190 172 161 202 217 98 133 144 144 139 133 131 111 97 90 86 76 70 67 63 61 75 94
265 269 292 286 295 300 288 308 258 218 177 213 183 175 205 211 239 219 183 179 209 204 202 207 199 147 340 244 58 8 325 204 138 187 206 96 141 136 143 138 131 130 118 109 102 95 89 84 79 81 82 74 87 92
276 271 280 309 302 345 329 282 211 164 178 245 215 227 246 197 231 293 224 177 182 200 198 189 176 126 219 189 109 36 288 223 214 183 181 145 136 134 139 141 135 123 119 115 110 106 98 96 91 89 92 94 102 96
280 253 289 298 312 323 286 232 172 145 23 287 239 255 234 333 296 298 256 290 105 213 186 187 205 206 211 177 93 164 228 248 258 124 108 128 141 144 136 132 124 117 125 122 117 109 106 105 103 103 103 108 108 106
257 265 283 287 326 331 225 113 136 102 252 257 250 270 316 300 345 335 357 252 332 181 166 109 176 251 79 38 126 40 258 263 95 90 129 143 135 137 134 127 128 130 125 122 118 116 116 118 119 118 115 104 99 97
234 259 305 312 315 290 173 136 173 230 245 236 260 276 286 284 283 322 336 357 349 350 20 60 157 180 124 203 115 198 75 141 151 117 131 132 133 135 130 126 126 122 123 123 123 121 116 112 107 109 107 100 93 91
322 318 312 311 192 125 161 161 226 242 248 232 257 304 297 302 292 307 336 322 292 163 270 101 347 325 347 147 181 110 105 112 116 120 128 127 130 133 129 122 123 126 123 120 114 110 113 119 111 106 105 106 93 82
321 306 326 146 155 138 206 219 227 266 275 288 305 294 293 300 284 285 297 292 67 120 71 25 63 17 29 55 74 110 109 122 130 130 129 133 134 131 131 129 126 124 123 126 129 126 125 124 124 128 132 149 109 102
129 111 99 126 177 299 254 212 227 269 292 313 306 290 302 297 305 310 246 77 137 127 67 23 41 46 350 5 118 125 126 127 122 114 113 122 128 131 131 131 128 127 125 125 126 124 118 116 112 114 131 136 125 117
63 40 334 70 341 270 272 268 258 262 309 297 313 312 299 300 283 186 71 322 46 36 70 50 50 58 33 41 120 143 138 135 139 136 129 125 127 131 133 131 136 134 129 130 152 148 109 114 120 113 122 131 132 122
2 338 208 289 273 262 256 242 259 279 279 291 317 315 287 233 145 42 55 46 53 37 39 38 77 100 79 83 125 143 149 158 145 152 150 142 135 138 137 135 133 136 145 155 148 141 139 135 136 139 144 141 127 119
7 343 288 250 265 274 314 296 279 246 265 284 355 324 335 44 42 42 69 42 51 21 65 96 116 129 130 130 128 118 124 135 134 133 134 132 138 142 133 145 156 155 145 135 145 148 153 150 144 144 154 145 188 249
327 271 268 267 204 252 237 212 227 235 221 159 9 338 36 43 45 62 61 31 26 65 94 110 139 132 128 133 129 127 129 125 121 128 134 144 154 167 172 162 146 135 140 152 153 151 144 152 170 143 161 199 263 288
278 265 249 276 220 234 245 184 187 235 85 53 353 67 47 37 64 55 40 50 71 97 113 128 141 148 133 121 125 129 135 134 128 122 126 123 133 133 132 131 125 128 146 158 157 159 164 175 170 195 231 265 292 300
268 231 165 334 9 26 2 359 25 21 64 32 31 83 70 58 59 50 63 117 115 116 113 129 141 130 127 136 132 130 127 127 116 104 101 153 159 155 147 161 174 171 161 171 180 181 184 199 212 237 251 271 270 332
277 34 30 31 23 18 22 44 37 31 29 23 60 110 126 80 91 111 149 134 124 116 116 115 117 116 120 131 138 137 129 112 108 139 129 106 121 110 135 181 150 141 157 155 166 181 192 201 223 258 276 285 289 290
307 40 58 349 33 39 48 24 340 328 338 254 256 195 108 101 124 151 143 133 134 129 136 149 170 139 140 145 148 145 156 158 153 150 142 137 136 139 132 133 176 166 157 162 155 160 191 258 273 284 291 294 296 297
354 135 241 218 137 255 248 109 209 256 245 258 294 71 105 123 139 140 141 139 140 134 132 129 130 134 138 146 151 156 158 154 155 158 177 171 175 171 177 143 139 159 178 194 166 88 319 303 263 316 316 311 306 307
213 214 295 82 75 36 1 188 289 280 283 48 110 118 120 125 133 132 137 143 145 144 140 139 140 140 143 144 149 155 161 169 174 183 195 193 172 174 182 191 194 196 206 217 248 239 338 13 314 321 323 321 311 318
144 189 68 65 65 10 334 338 91 68 69 105 124 128 128 128 132 137 143 144 142 141 146 149 150 149 147 148 152 170 170 182 222 193 156 146 188 178 178 187 192 197 195 190 199 232 256 314 318 313 310 309 311 313
62 73 126 123 115 77 67 81 84 88 100 109 120 130 138 145 138 162 171 160 165 163 163 167 162 156 153 155 157 166 109 139 152 156 152 168 176 173 155 154 167 182 196 224 256 273 283 297 306 309 311 314 319 319
105 108 113 114 135 134 134 109 108 112 105 111 148 173 162 177 156 170 195 181 186 156 170 190 185 182 179 156 145 144 160 179 179 195 217 199 177 168 144 182 211 228 253 271 280 287 294 299 307 316 318 320 318 318